Weather History for KLOL - November, 2012

Change the Weather History Date:

Wednesday, November 28, 2012

  Actual Average Record
Temperature  
Mean Temperature 32 °F -  
Max Temperature 48 °F 46 °F 71 °F (2014)
Min Temperature 17 °F 20 °F 1 °F (1952)
Degree Days  
Heating Degree Days 32    
Moisture  
Dew Point 24 °F    
Average Humidity 71    
Maximum Humidity 96    
Minimum Humidity 42    
Precipitation  
Precipitation 0.01 in - - ()
Sea Level Pressure  
Sea Level Pressure 30.04 in    
Wind  
Wind Speed 3 mph (ENE)    
Max Wind Speed 8 mph    
Max Gust Speed -    
Visibility 10 miles    
Events Rain    
Averages and records for this station are not official NWS values.
T = Trace of Precipitation, MM = Missing Value Source: NWS Daily Summary

Daily Weather History Graph

Daily Weather History Graph

Search for Another Location

Airport or City:

Trip Planner

Search our weather history database for the weather conditions in past years. The results will help you decide how hot, cold, wet, or windy it might be!

Date:

Astronomy

Nov. 28, 2012 Rise Set
Actual Time 6:54 AM PST 4:30 PM PST
Civil Twilight 6:24 AM PST 5:00 PM PST
Nautical Twilight 5:51 AM PST 5:33 PM PST
Astronomical Twilight 5:18 AM PST 6:06 PM PST
Moon 4:48 PM PST (11/28) 6:56 AM PST (11/28)
Length of Visible Light 10h 35m
Length of Day
9h 35m
Full, 100% of the Moon is Illuminated
Nov 28
Full
Dec 6
Last Quarter
Dec 13
New
Dec 19
First Quarter
Dec 28
Full

Hourly Weather History & Observations

Time (PST) Temp. Windchill Dew Point Humidity Pressure Visibility Wind Dir Wind Speed Gust Speed Precip Events Conditions
12:53 AM 25.0 °F - 16.0 °F 69% 30.14 in 10.0 mi Calm Calm - N/A   Clear
1:53 AM 25.0 °F 20.7 °F 17.1 °F 72% 30.12 in 10.0 mi WSW 3.5 mph - N/A   Clear
2:53 AM 21.0 °F 11.4 °F 15.1 °F 78% 30.10 in 10.0 mi SSE 8.1 mph - N/A   Clear
3:53 AM 19.0 °F - 12.0 °F 74% 30.09 in 10.0 mi Calm Calm - N/A   Clear
4:53 AM 21.0 °F 16.2 °F 14.0 °F 74% 30.09 in 10.0 mi NNW 3.5 mph - N/A   Clear
5:53 AM 18.0 °F - 12.0 °F 78% 30.10 in 10.0 mi Calm Calm - N/A   Clear
6:53 AM 17.1 °F 11.7 °F 10.0 °F 74% 30.09 in 10.0 mi SSE 3.5 mph - N/A   Clear
7:53 AM 21.0 °F - 12.9 °F 71% 30.08 in 10.0 mi Calm Calm - N/A   Clear
8:53 AM 30.0 °F - 19.9 °F 66% 30.04 in 10.0 mi Calm Calm - N/A   Clear
9:53 AM 37.0 °F 31.0 °F 24.1 °F 59% 30.01 in 10.0 mi ENE 8.1 mph - N/A   Clear
10:53 AM 41.0 °F - 24.1 °F 51% 30.00 in 10.0 mi Calm Calm - N/A   Clear
11:53 AM 46.9 °F - 25.0 °F 42% 29.95 in 10.0 mi NE 5.8 mph - N/A   Mostly Cloudy
12:53 PM 46.9 °F - 25.0 °F 42% 29.95 in 10.0 mi WNW 4.6 mph - N/A   Overcast
1:53 PM 48.0 °F - 27.0 °F 44% 29.94 in 10.0 mi SE 4.6 mph - N/A   Overcast
2:53 PM 48.0 °F - 30.9 °F 52% 29.96 in 10.0 mi Calm Calm - 0.00 in Rain Light Rain
3:53 PM 46.0 °F 43.9 °F 37.0 °F 71% 29.99 in 9.0 mi East 4.6 mph - 0.01 in Rain Light Rain
4:53 PM 44.1 °F 41.5 °F 37.9 °F 79% 30.01 in 10.0 mi SW 4.6 mph - 0.00 in   Overcast
5:53 PM 42.1 °F 40.2 °F 37.0 °F 82% 30.03 in 10.0 mi ESE 3.5 mph - 0.00 in   Overcast
6:53 PM 39.9 °F 36.7 °F 37.0 °F 89% 30.04 in 10.0 mi NE 4.6 mph - N/A   Partly Cloudy
7:53 PM 37.0 °F 34.5 °F 34.0 °F 89% 30.08 in 10.0 mi NE 3.5 mph - N/A   Clear
8:53 PM 34.0 °F - 30.9 °F 89% 30.06 in 10.0 mi Calm Calm - N/A   Clear
9:53 PM 30.0 °F - 28.0 °F 92% 30.07 in 10.0 mi Calm Calm - N/A   Clear
11:53 PM 27.0 °F 20.5 °F 26.1 °F 96% 30.05 in 10.0 mi North 5.8 mph - N/A   Clear